CW6617 Weather Reports


Display with metric or nautical units.
time (UTC)temp
F
wind
direction
speed
MPH
gust
MPH
rain 1hr
in
rain 24hr
in
rain mn
in
humidity
%
barometer
mb
20210506103706 49 314 10.0 15.0 0.00 0.06 0.00 73 1005.5
20210506103206 50 303 8.0 15.0 0.00 0.06 0.00 73 1005.5
20210506101706 49 313 5.0 9.0 0.00 0.06 0.00 74 1005.3
20210506101206 48 315 5.0 10.0 0.00 0.06 0.00 74 1005.4
20210506100705 48 315 4.0 10.0 0.00 0.06 0.00 73 1005.4
20210506100206 48 294 6.0 13.0 0.00 0.06 0.00 71 1005.4
20210506094705 49 303 5.0 9.0 0.00 0.06 0.00 70 1005.4
20210506094206 49 318 3.0 9.0 0.00 0.06 0.00 72 1005.3
20210506093706 50 317 3.0 9.0 0.00 0.06 0.00 72 1005.3
20210506093206 50 313 7.0 12.0 0.00 0.06 0.00 73 1005.4
20210506091706 49 276 3.0 7.0 0.00 0.06 0.00 69 1005.4
20210506091206 49 277 3.0 6.0 0.00 0.06 0.00 70 1005.4
20210506090707 49 133 2.0 5.0 0.00 0.06 0.00 73 1005.5
20210506090206 49 310 3.0 10.0 0.00 0.06 0.00 75 1005.5
20210506084706 48 312 3.0 10.0 0.00 0.06 0.00 79 1005.5
20210506084205 47 237 3.0 5.0 0.00 0.06 0.00 79 1005.5
20210506083706 46 265 2.0 6.0 0.00 0.06 0.00 82 1005.5
20210506083205 46 315 1.0 7.0 0.00 0.06 0.00 84 1005.5
20210506081706 44 316 4.0 6.0 0.00 0.06 0.00 93 1005.6
20210506081206 43 310 1.0 3.0 0.00 0.06 0.00 95 1005.7
20210506080706 42 310 1.0 3.0 0.00 0.06 0.00 95 1005.7
20210506080206 42 202 0.0 2.0 0.00 0.06 0.00 95 1005.7
20210506074705 41 202 0.0 0.0 0.00 0.06 0.00 95 1005.7
20210506074205 41 202 0.0 0.0 0.00 0.06 0.00 95 1005.7
20210506073706 40 202 0.0 0.0 0.00 0.06 0.00 95 1005.7
20210506073206 40 202 0.0 0.0 0.00 0.06 0.00 95 1005.7
20210506071705 39 202 0.0 0.0 0.00 0.06 0.00 95 1005.9
20210506071205 39 202 0.0 0.0 0.00 0.06 0.00 95 1006.0
20210506070706 39 202 0.0 0.0 0.00 0.06 0.00 96 1006.0
20210506070206 39 202 0.0 0.0 0.00 0.06 0.00 96 1006.0
20210506064706 37 202 0.0 0.0 0.00 0.06 0.00 96 1006.0
20210506064206 37 202 0.0 0.0 0.00 0.06 0.00 95 1006.0
20210506063706 37 202 0.0 0.0 0.00 0.06 0.00 95 1006.0
20210506063206 36 202 0.0 0.0 0.00 0.06 0.00 95 1006.0
20210506061706 36 202 0.0 0.0 0.00 0.06 0.00 95 1006.0
20210506061206 35 202 0.0 0.0 0.00 0.06 0.00 95 1006.0
20210506060705 35 202 0.0 0.0 0.00 0.06 0.00 95 1006.0
20210506060206 35 202 0.0 0.0 0.00 0.06 0.00 95 1006.0
20210506054705 34 202 0.0 0.0 0.00 0.06 0.00 94 1005.8
20210506054206 34 202 0.0 0.0 0.00 0.06 0.00 94 1005.8
20210506053706 34 202 0.0 0.0 0.00 0.06 0.00 94 1005.8
20210506053206 34 202 0.0 0.0 0.00 0.06 0.00 94 1005.8
20210506051706 33 202 0.0 0.0 0.00 0.06 0.00 94 1005.8
20210506051206 33 202 0.0 0.0 0.00 0.06 0.00 94 1005.9
20210506050705 33 202 0.0 0.0 0.00 0.06 0.00 94 1005.9
20210506050206 33 202 0.0 0.0 0.00 0.06 0.00 94 1005.9
20210506044706 33 202 0.0 0.0 0.00 0.06 0.00 94 1006.0
20210506044206 33 202 0.0 0.0 0.00 0.06 0.00 94 1006.1
20210506043705 33 202 0.0 0.0 0.00 0.06 0.00 94 1006.0
20210506043206 33 202 0.0 0.0 0.00 0.06 0.00 94 1006.1
20210506041705 34 202 0.0 0.0 0.00 0.06 0.00 94 1006.2
20210506041206 34 202 0.0 0.0 0.00 0.06 0.00 94 1006.1
20210506040706 34 202 0.0 0.0 0.00 0.06 0.00 94 1006.2
20210506040206 34 202 0.0 0.0 0.00 0.06 0.00 94 1006.2
20210506034706 34 202 0.0 0.0 0.00 0.06 0.00 94 1006.5
20210506034205 34 202 0.0 0.0 0.00 0.06 0.00 94 1006.6
20210506033706 34 202 0.0 0.0 0.00 0.06 0.00 93 1006.7
20210506033206 34 202 0.0 0.0 0.00 0.06 0.00 93 1006.7
20210506031706 34 202 0.0 0.0 0.00 0.06 0.00 93 1006.8
20210506031206 34 202 0.0 0.0 0.00 0.06 0.00 93 1006.8
20210506030706 34 202 0.0 0.0 0.00 0.06 0.00 93 1007.0
20210506030205 34 202 0.0 0.0 0.00 0.06 0.00 93 1007.1
20210506024706 35 202 0.0 0.0 0.00 0.06 0.00 93 1007.1
20210506024206 35 202 0.0 0.0 0.00 0.06 0.00 93 1007.2
20210506023705 35 202 0.0 0.0 0.00 0.06 0.00 93 1007.2
20210506023206 35 202 0.0 0.0 0.00 0.06 0.00 93 1007.3
20210506021706 35 202 0.0 0.0 0.00 0.06 0.00 93 1007.5
20210506021205 35 202 0.0 0.0 0.00 0.06 0.00 93 1007.4
20210506020706 35 202 0.0 0.0 0.00 0.06 0.00 93 1007.6
20210506020206 35 202 0.0 0.0 0.00 0.06 0.00 93 1007.6
20210506014705 35 202 0.0 0.0 0.00 0.06 0.00 93 1007.7
20210506014206 35 202 0.0 0.0 0.00 0.06 0.00 93 1007.9
20210506013706 35 202 0.0 0.0 0.00 0.06 0.00 93 1007.9
20210506013206 35 202 0.0 0.0 0.00 0.06 0.00 93 1007.9
20210506011706 35 202 0.0 0.0 0.00 0.06 0.00 93 1008.1
20210506011205 35 202 0.0 0.0 0.00 0.06 0.00 93 1008.2
20210506010705 36 202 0.0 0.0 0.00 0.06 0.00 93 1008.2
20210506010206 35 202 0.0 0.0 0.00 0.06 0.00 93 1008.3
20210506004706 36 202 0.0 0.0 0.00 0.06 0.00 93 1008.5
20210506004206 36 202 0.0 0.0 0.00 0.06 0.00 93 1008.5
20210506003706 36 202 0.0 0.0 0.00 0.06 0.00 93 1008.6
20210506003205 36 202 0.0 0.0 0.00 0.06 0.00 93 1008.7
20210506001706 36 202 0.0 0.0 0.00 0.06 0.00 92 1008.9
20210506001206 36 202 0.0 0.0 0.00 0.06 0.00 92 1008.8
20210506000706 36 202 0.0 0.0 0.00 0.06 0.00 92 1008.9
20210506000206 36 202 0.0 0.0 0.00 0.06 0.00 92 1009.0
20210505234706 36 202 0.0 0.0 0.00 0.06 0.00 92 1009.1
20210505234206 36 202 0.0 0.0 0.00 0.06 0.00 92 1009.0
20210505233706 36 202 0.0 0.0 0.00 0.06 0.00 92 1009.2
20210505233206 37 202 0.0 0.0 0.00 0.06 0.00 92 1009.1
20210505231706 37 202 0.0 0.0 0.00 0.06 0.00 92 1009.2
20210505231206 37 202 0.0 0.0 0.00 0.06 0.00 92 1009.2
20210505230706 37 202 0.0 0.0 0.00 0.06 0.00 92 1009.1
20210505230205 37 202 0.0 0.0 0.00 0.06 0.00 91 1009.2
20210505224706 38 202 0.0 0.0 0.00 0.06 0.06 91 1009.2
20210505224206 38 202 0.0 0.0 0.00 0.06 0.06 91 1009.3
20210505223706 38 202 0.0 0.0 0.00 0.06 0.06 91 1009.4
20210505223205 38 202 0.0 0.0 0.00 0.06 0.06 91 1009.4
20210505221706 39 202 0.0 0.0 0.00 0.06 0.06 91 1009.5
20210505221206 39 202 0.0 0.0 0.00 0.06 0.06 91 1009.6
20210505220705 39 202 0.0 0.0 0.00 0.06 0.06 91 1009.6
20210505220206 39 202 0.0 0.0 0.00 0.06 0.06 91 1009.7
20210505214706 39 202 0.0 0.0 0.00 0.06 0.06 91 1009.7
20210505214206 40 202 0.0 0.0 0.00 0.06 0.06 91 1009.9
20210505213706 40 202 0.0 0.0 0.00 0.06 0.06 91 1009.9
20210505213206 40 202 0.0 0.0 0.00 0.06 0.06 91 1009.8
20210505211706 40 202 0.0 0.0 0.00 0.06 0.06 91 1009.9
20210505211206 40 202 0.0 0.0 0.00 0.06 0.06 91 1009.8
20210505210706 40 202 0.0 0.0 0.00 0.06 0.06 91 1009.8
20210505210206 40 202 0.0 0.0 0.00 0.06 0.06 91 1009.8
20210505204706 40 235 0.0 0.0 0.01 0.06 0.06 91 1010.0
20210505204206 40 267 0.0 0.0 0.01 0.06 0.06 91 1010.1
20210505203706 41 286 0.0 0.0 0.01 0.06 0.06 91 1010.1
20210505203206 41 242 0.0 0.0 0.01 0.06 0.06 91 1010.2
20210505201706 41 239 0.0 0.0 0.01 0.06 0.06 91 1010.1
20210505201207 41 252 0.0 5.0 0.01 0.06 0.06 91 1010.1
20210505200705 41 264 0.0 0.0 0.01 0.06 0.06 91 1010.1
20210505200205 41 264 0.0 3.0 0.01 0.06 0.06 91 1010.1
20210505194706 41 265 1.0 3.0 0.00 0.06 0.05 91 1010.1
20210505194207 40 265 0.0 3.0 0.00 0.06 0.05 91 1010.2
20210505193707 40 310 1.0 3.0 0.00 0.06 0.05 91 1010.1
20210505193206 40 310 0.0 2.0 0.00 0.06 0.05 91 1010.0
20210505191706 40 327 0.0 0.0 0.00 0.06 0.05 90 1009.9
20210505191206 40 327 0.0 3.0 0.00 0.06 0.05 90 1009.9
20210505190706 40 327 0.0 0.0 0.00 0.06 0.05 90 1009.9
20210505190205 41 327 0.0 3.0 0.00 0.06 0.05 90 1009.9
20210505184705 41 336 2.0 3.0 0.04 0.06 0.05 90 1009.9
20210505184206 41 0 2.0 6.0 0.04 0.06 0.05 89 1009.9
20210505183706 41 23 3.0 7.0 0.04 0.06 0.05 90 1009.9
20210505183206 41 315 4.0 12.0 0.04 0.06 0.05 90 1010.1
20210505181706 41 312 6.0 13.0 0.04 0.06 0.05 89 1010.1
20210505181205 41 319 10.0 15.0 0.04 0.06 0.05 89 1010.1
20210505180707 41 342 7.0 17.0 0.04 0.06 0.05 87 1009.9
20210505180207 41 353 11.0 29.0 0.04 0.06 0.05 85 1010.0
20210505174706 47 317 16.0 24.0 0.00 0.02 0.01 76 1010.3
20210505174206 48 288 7.0 17.0 0.00 0.02 0.01 75 1010.1
20210505173706 49 286 5.0 8.0 0.00 0.02 0.01 72 1009.7
20210505173205 49 277 2.0 9.0 0.00 0.02 0.01 72 1009.6
20210505171706 50 286 3.0 7.0 0.00 0.02 0.01 70 1009.6
20210505171206 50 300 3.0 5.0 0.00 0.02 0.01 72 1009.5
20210505170706 50 306 2.0 9.0 0.00 0.02 0.01 73 1009.6
20210505170206 49 307 3.0 9.0 0.00 0.02 0.01 73 1009.5
20210505164706 50 288 5.0 10.0 0.00 0.02 0.01 70 1009.6
20210505164207 50 295 4.0 10.0 0.00 0.02 0.01 71 1009.7
20210505163706 50 320 7.0 9.0 0.00 0.02 0.01 72 1009.7
20210505163206 49 318 4.0 8.0 0.00 0.02 0.01 74 1009.5
20210505161705 50 305 5.0 10.0 0.00 0.02 0.01 74 1009.5
20210505161206 50 322 3.0 9.0 0.01 0.02 0.01 74 1009.5
20210505160706 50 296 2.0 8.0 0.01 0.02 0.01 75 1009.6
20210505160206 49 307 4.0 10.0 0.01 0.02 0.01 76 1009.6
20210505154706 47 321 4.0 8.0 0.01 0.02 0.01 83 1009.8
20210505154206 46 21 5.0 8.0 0.01 0.02 0.01 85 1009.8
20210505153706 44 338 4.0 12.0 0.01 0.02 0.01 85 1010.0
20210505153206 44 343 6.0 14.0 0.01 0.02 0.01 85 1010.0
20210505151706 44 340 9.0 16.0 0.01 0.02 0.01 84 1010.2
20210505151214 45 324 16.0 24.0 0.00 0.01 0.00 79 1010.2
20210505150706 46 323 12.0 20.0 0.00 0.01 0.00 72 1010.4
20210505150206 49 311 18.0 38.0 0.00 0.01 0.00 67 1010.4
20210505144706 54 246 6.0 12.0 0.00 0.01 0.00 53 1009.2
20210505144206 55 206 6.0 13.0 0.00 0.01 0.00 55 1009.2
20210505143705 54 212 3.0 9.0 0.00 0.01 0.00 57 1009.3
20210505143206 53 297 3.0 18.0 0.00 0.01 0.00 58 1009.4
20210505141706 54 296 5.0 13.0 0.00 0.01 0.00 50 1009.0
20210505141206 54 232 7.0 13.0 0.00 0.01 0.00 49 1009.0
20210505140706 53 250 5.0 10.0 0.00 0.01 0.00 54 1009.0
20210505140206 54 312 4.0 13.0 0.00 0.01 0.00 53 1008.9
20210505134706 54 220 4.0 9.0 0.00 0.01 0.00 53 1009.2
20210505134205 54 232 3.0 8.0 0.00 0.01 0.00 53 1009.1
20210505133706 54 286 4.0 9.0 0.00 0.01 0.00 55 1009.1
20210505133206 54 254 3.0 13.0 0.00 0.01 0.00 53 1009.2
20210505131706 55 310 5.0 12.0 0.00 0.01 0.00 53 1009.3
20210505131206 54 303 3.0 13.0 0.00 0.01 0.00 54 1009.3
20210505130706 54 219 3.0 6.0 0.00 0.01 0.00 52 1009.3
20210505130206 54 288 5.0 12.0 0.00 0.01 0.00 50 1009.3
20210505124706 56 195 5.0 9.0 0.00 0.01 0.00 52 1009.3
20210505124207 54 297 5.0 10.0 0.00 0.01 0.00 55 1009.3
20210505123706 54 296 6.0 10.0 0.00 0.01 0.00 53 1009.4
20210505123206 55 261 6.0 13.0 0.00 0.01 0.00 49 1009.3
20210505121706 52 240 3.0 9.0 0.00 0.01 0.00 54 1009.6
20210505121206 52 316 5.0 10.0 0.00 0.01 0.00 57 1009.6
20210505120706 52 247 2.0 7.0 0.00 0.01 0.00 58 1009.6
20210505120205 52 309 3.0 9.0 0.00 0.01 0.00 56 1009.7
20210505114705 53 204 4.0 10.0 0.00 0.01 0.00 52 1009.7
20210505114205 54 280 5.0 10.0 0.00 0.01 0.00 51 1009.8
20210505113705 55 203 2.0 7.0 0.00 0.01 0.00 56 1009.6
20210505113206 53 205 5.0 13.0 0.00 0.01 0.00 52 1009.6
20210505111706 55 305 7.0 13.0 0.00 0.01 0.00 53 1009.5
20210505111206 55 260 4.0 10.0 0.00 0.01 0.00 56 1009.4
20210505110706 55 308 4.0 9.0 0.00 0.01 0.00 56 1009.5
20210505110206 54 234 3.0 13.0 0.00 0.01 0.00 54 1009.4
20210505104706 52 301 3.0 10.0 0.00 0.01 0.00 60 1009.6
20210505104205 51 283 4.0 9.0 0.00 0.01 0.00 59 1009.6